This demonstration page uses our WeatherBlox Daily Observations layout. Learn more.

41.55636, -103.73856

Hourly Observations for April 30, 2015

Temp ( °F °C ) Dew Point ( °F °C ) Humidity (%) Winds ( mph kmh ) Pressure ( in mb ) Visibility ( mi km ) Precip ( " mm )
12:53 am 00:53 Clear 50 10 42 5.6 74 74 ESE 9 15 29.81 1009 10 16.0934 0 0
1:53 am 01:53 Clear 49 9.4 40 4.4 71 71 E 10 17 29.79 1009 10 16.0934 0 0
2:53 am 02:53 Clear 48 8.9 40 4.4 74 74 ESE 13 20 29.78 1008 10 16.0934 0 0
3:53 am 03:53 Clear 46 7.8 39 3.9 77 77 ESE 8 13 29.78 1009 10 16.0934 0 0
4:53 am 04:53 Clear 45 7 N/A N/A E 9 15 29.78 1008 10 16.0934 0 0
5:53 am 05:53 Sunny 43 6 N/A N/A undefined N/A 29.79 1009 10 16.0934 0 0
6:53 am 06:53 Sunny 46 8 N/A N/A Calm 29.8 1009 10 16.0934 0 0
7:53 am 07:53 Sunny 49 9.4 42 5.6 77 77 E 3 6 29.83 1010 10 16.0934 0 0
8:53 am 08:53 Sunny 56 13.3 45 7.2 67 67 W 7 11 29.83 1010 10 16.0934 0 0
9:53 am 09:53 Sunny 62 16.7 46 7.8 56 56 W 13 20 29.83 1010 10 16.0934 0 0
10:53 am 10:53 Sunny 68 20 48 8.9 49 49 W 13 20 29.84 1011 10 16.0934 0 0
11:53 am 11:53 Sunny 76 24.4 48 8.9 37 37 NNW 10 17 29.82 1010 10 16.0934 0 0
12:53 pm 12:53 Sunny 77 25 49 9.4 37 37 NNW 15 24 29.82 1010 10 16.0934 0 0
1:53 pm 13:53 Sunny 77 25 49 9.4 37 37 N 13 20 29.84 1010 10 16.0934 0 0
2:53 pm 14:53 Sunny 76 24.4 48 8.9 37 37 NNW 16 26 29.85 1011 10 16.0934 0 0
3:53 pm 15:53 Mostly Sunny 76 24.4 48 8.9 37 37 N 17 28 29.85 1011 10 16.0934 0 0
4:53 pm 16:53 Partly Cloudy 73 22.8 47 8.3 40 40 NNE 21 33 29.89 1012 10 16.0934 0 0
5:53 pm 17:53 Mostly Sunny 69 20.6 47 8.3 45 45 NNW 16 26 29.93 1014 10 16.0934 0 0
6:53 pm 18:53 Partly Cloudy 67 19.4 46 7.8 47 47 N 10 17 29.93 1013 10 16.0934 0 0
7:53 pm 19:53 Clear 63 17.2 46 7.8 54 54 N 10 17 29.96 1014 10 16.0934 0 0
8:53 pm 20:53 Clear 59 15 43 6.1 56 56 N 20 31 30 1016 10 16.0934 0 0
9:53 pm 21:53 Cloudy with Light Rain 54 12.2 46 7.8 75 75 NE 14 22 30.03 1017 10 16.0934 0 0.0254
10:00 pm 22:00 Cloudy with Light Rain 54 12 46 8 77 77 ENE 8 13 30.03 1017 10 16.0934 0 0
10:53 pm 22:53 Cloudy with Light Rain 53 11.7 46 7.8 77 77 W 9 15 30.04 1017 10 16.0934 0.01 0.254
11:53 pm 23:53 Mostly Clear 51 10.6 48 8.9 89 89 Calm 30.02 1017 10 16.0934 0 0.0254

Powered by AerisWeather